GW4151 Weather Reports


time (UTC)temp
C
wind
direction
speed
KPH
gust
KPH
rain 1hr
cm
rain 24hr
cm
rain mn
cm
humidity
%
barometer
mb
20260905152748 21 68 3.2 6.4 0.00 0.00 0.00 90 995.3
20260905151244 21 26 1.6 3.2 0.00 0.00 0.00 91 995.5
20260905145740 21 334 3.2 6.4 0.00 0.00 0.00 92 995.5
20260905144236 21 6 1.6 4.8 0.00 0.00 0.00 93 995.4
20260905142733 21 21 3.2 4.8 0.00 0.00 0.00 93 995.3
20260905141231 21 58 3.2 6.4 0.00 0.00 0.00 93 995.0
20260905135726 21 172 1.6 4.8 0.00 0.00 0.00 95 994.8
20260905134226 21 151 0.0 4.8 0.00 0.00 0.00 96 994.9
20260905132721 20 30 6.4 9.7 0.00 0.00 0.00 98 994.8
20260905131219 20 358 6.4 9.7 0.00 0.00 0.00 99 994.5
20260905125714 20 50 4.8 4.8 0.00 0.00 0.00 99 994.6
20260905124213 20 173 1.6 9.7 0.00 0.00 0.00 99 994.5
20260905122710 20 47 4.8 6.4 0.00 0.00 0.00 99 994.1
20260905121208 20 87 6.4 9.7 0.00 0.00 0.00 99 994.0
20260905115707 20 106 6.4 9.7 0.00 0.00 0.00 99 994.2
20260905114206 21 38 3.2 3.2 0.00 0.00 0.00 99 994.1
20260905112701 21 176 0.0 1.6 0.00 0.00 0.00 99 993.6
20260905111156 21 194 0.0 1.6 0.00 0.00 0.00 99 993.7
20260905105652 20 247 1.6 3.2 0.00 0.00 0.00 99 993.6
20260905104148 21 108 3.2 6.4 0.00 0.00 0.00 99 993.6
20260905102646 21 187 1.6 3.2 0.00 0.00 0.00 99 993.8
20260905101145 21 29 1.6 3.2 0.00 0.00 0.00 99 993.8
20260905095641 21 114 1.6 6.4 0.00 0.00 0.00 99 993.5
20260905094137 21 44 3.2 6.4 0.00 0.00 0.00 99 993.4
20260905092634 21 193 3.2 9.7 0.00 0.00 0.00 99 993.2
20260905091129 21 208 1.6 3.2 0.00 0.00 0.00 99 993.5
20260905085624 21 178 1.6 3.2 0.00 0.00 0.00 99 993.4
20260905084120 21 230 3.2 6.4 0.00 0.00 0.00 99 993.2
20260905082618 20 72 3.2 6.4 0.00 0.00 0.00 99 992.9
20260905081114 20 348 0.0 0.0 0.00 0.00 0.00 99 992.8
20260905075613 20 106 0.0 1.6 0.00 0.00 0.00 99 992.9
20260905074108 20 32 0.0 4.8 0.00 0.00 0.00 99 992.7
20260905072604 20 240 0.0 0.0 0.00 0.00 0.00 99 993.1
20260905071103 20 131 0.0 1.6 0.00 0.00 0.00 99 992.8
20260905065557 20 3 3.2 11.3 0.00 0.00 0.00 99 993.1
20260905064054 20 151 0.0 1.6 0.00 0.00 0.00 99 993.4
20260905062550 20 194 0.0 0.0 0.00 0.00 0.00 99 993.4
20260905061050 20 141 0.0 1.6 0.00 0.00 0.00 99 993.1
20260905055546 20 183 0.0 0.0 0.00 0.00 0.00 99 993.1
20260905054044 20 180 0.0 0.0 0.00 0.00 0.00 99 993.3
20260905052544 20 151 0.0 0.0 0.00 0.00 0.00 99 993.4
20260905051044 20 151 0.0 0.0 0.00 0.00 0.00 99 993.6
20260905045542 21 151 0.0 0.0 0.00 0.00 0.00 99 993.5
20260905044038 20 151 0.0 0.0 0.00 0.00 0.00 99 993.4
20260905042537 20 154 0.0 0.0 0.00 0.00 0.00 99 993.2
20260905041035 21 154 0.0 0.0 0.00 0.00 0.00 99 993.2
20260905035534 21 153 0.0 0.0 0.00 5.23 5.23 99 993.7
20260905034032 21 170 0.0 0.0 0.00 5.23 5.23 99 993.8
20260905032529 21 171 0.0 0.0 0.00 5.23 5.23 99 994.2
20260905031024 21 171 0.0 0.0 0.00 5.23 5.23 99 994.3
20260905025521 21 176 0.0 0.0 0.00 5.23 5.23 99 994.5
20260905024019 21 176 0.0 0.0 0.00 5.23 5.23 98 994.4
20260905022515 21 190 0.0 0.0 0.00 5.23 5.23 98 994.4
20260905021010 22 194 0.0 0.0 0.00 5.23 5.23 97 994.2
20260905015509 22 191 0.0 0.0 0.00 5.23 5.23 97 994.2
20260905014005 22 176 0.0 0.0 0.00 5.23 5.23 97 994.1
20260905012503 22 176 0.0 0.0 0.00 5.23 5.23 97 994.2
20260905011003 22 166 0.0 0.0 0.00 5.23 5.23 97 994.3
20260905005500 22 168 0.0 0.0 0.00 5.23 5.23 96 993.9
20260905003957 22 173 0.0 0.0 0.00 5.23 5.23 95 993.9
20260905002455 23 176 0.0 0.0 0.00 5.23 5.23 94 993.7
20260905000950 23 184 0.0 0.0 0.00 5.23 5.23 93 993.7
20260904235449 23 162 0.0 0.0 0.00 5.23 5.23 91 993.4
20260904233945 25 187 0.0 0.0 0.00 5.23 5.23 89 993.7
20260904232444 25 176 1.6 3.2 0.00 5.23 5.23 88 993.4
20260904230942 25 71 3.2 3.2 0.00 5.23 5.23 87 993.5
20260904225440 25 70 4.8 4.8 0.00 5.23 5.23 86 993.6
20260904223935 25 135 3.2 4.8 0.00 5.23 5.23 84 993.5
20260904222432 26 285 3.2 4.8 0.00 5.23 5.23 83 993.5
20260904220928 25 138 1.6 3.2 0.00 5.23 5.23 84 993.2
20260904215424 26 176 0.0 3.2 0.00 5.23 5.23 82 993.3
20260904213920 25 184 0.0 3.2 0.00 5.23 5.23 84 993.1
20260904212416 26 148 1.6 3.2 0.00 5.23 5.23 83 993.2
20260904210913 25 153 1.6 6.4 0.00 5.23 5.23 85 993.3
20260904205410 25 13 3.2 4.8 0.00 5.23 5.23 88 993.3
20260904203909 24 182 3.2 6.4 0.00 5.23 5.23 89 993.5
20260904202408 25 166 1.6 1.6 0.00 5.23 5.23 86 993.6
20260904200906 25 200 0.0 1.6 0.00 5.23 5.23 85 993.9
20260904195403 24 48 1.6 3.2 0.00 5.23 5.23 87 993.8
20260904193859 24 153 3.2 4.8 0.00 5.23 5.23 87 993.8
20260904192356 23 25 4.8 4.8 0.00 5.23 5.23 88 993.8
20260904190851 24 203 1.6 3.2 0.00 5.23 5.23 87 994.0
20260904185349 23 147 3.2 6.4 0.00 5.23 5.23 88 994.1
20260904183845 23 172 3.2 4.8 0.00 5.23 5.23 88 994.3
20260904182342 22 179 0.0 3.2 0.00 5.23 5.23 97 994.1
20260904180839 22 229 1.6 1.6 0.00 5.23 5.23 99 994.5
20260904175338 22 35 3.2 3.2 0.00 5.23 5.23 99 994.0
20260904173836 22 183 0.0 0.0 0.00 5.23 5.23 99 994.2
20260904172332 21 166 0.0 1.6 0.00 5.23 5.23 99 994.7
20260904170831 21 94 1.6 3.2 0.00 5.23 5.23 99 994.3
20260904165325 21 195 1.6 4.8 0.00 5.23 5.23 99 994.0
20260904163823 21 13 6.4 9.7 0.00 5.23 5.23 99 993.0
20260904162323 20 173 6.4 24.1 0.00 5.23 5.23 99 991.9
20260904160820 21 127 8.0 22.5 0.30 5.21 5.21 99 993.0
20260904155316 20 212 6.4 9.7 0.00 5.13 5.13 99 995.0
20260904153811 20 202 0.0 1.6 0.00 5.13 5.13 99 994.8